Skip Page Navigation
NASA JPL Caltech
NASA Logo - Jet Propulsion Laboratory + View the NASA Portal
+ Near-Earth Object (NEO) Program
Search JPL
JPL Home Earth Solar System Stars & Galaxies Technology
JPL Solar System Dynamics
BODIES ORBITS EPHEMERIDES TOOLS PHYSICAL DATA DISCOVERY FAQ SITE MAP
JPL Small-Body Database Browser
Search: [ help ]  
27383 Braebenedict (2000 ES79)
Classification: Main-belt Asteroid          SPK-ID: 2027383
Ephemeris | Orbit Diagram | Orbital Elements | Physical Parameters | Discovery Circumstances | Close-Approach Data ]

[ show orbit diagram ]
Orbital Elements at Epoch 2457000.5 (2014-Dec-09.0) TDB
Reference: JPL 14 (heliocentric ecliptic J2000)
 Element Value Uncertainty (1-sigma)   Units 
e .07186674100641939 5.1429e-08  
a 2.368242488952415 1.7626e-08 AU
q 2.198044619358474 1.2673e-07 AU
i 6.996625027170811 5.766e-06 deg
node 136.6263952544683 4.6288e-05 deg
peri 129.4760466713803 6.9583e-05 deg
M 281.7408426785781 4.9644e-05 deg
tp 2457289.881221949827
(2015-Sep-24.38122195)
0.00018228 JED
period 1331.18274547816
3.64
1.4861e-05
4.069e-08
d
yr
n .270436197601621 3.0191e-09 deg/d
Q 2.538440358546357 1.8892e-08 AU
  Orbit Determination Parameters
   # obs. used (total)      715  
   data-arc span      13170 days (36.06 yr)  
   first obs. used      1979-07-24  
   last obs. used      2015-08-14  
   planetary ephem.      DE431  
   SB-pert. ephem.      SB431-BIG16  
   condition code      0  
   fit RMS      .51673  
   data source      ORB  
   producer      Otto Matic  
   solution date      2015-Sep-02 15:10:39  

Additional Information
 Earth MOID = 1.19092 AU 
 T_jup = 3.533 
[ show covariance matrix ]

Ephemeris | Orbit Diagram | Orbital Elements | Physical Parameters | Discovery Circumstances | Close-Approach Data ]

Physical Parameter Table
Parameter Symbol Value Units Sigma Reference Notes
absolute magnitude H 15.1 mag n/a MPO337489  

27383 Braebenedict           Discovered 2000 Mar. 5 by the Lincoln Laboratory Near-Earth Asteroid Research Team at Socorro.
Braeden Christopher Benedict (b. 1996) is a finalist in the 2011 Broadcom MASTERS, a math and science competition for middle-school students, for his physical sciences project. He attends the Saint John Fisher Parish School, Rancho Palos Verdes, California.
NOTE: some special characters may not display properly (any characters within {} are an attempt to place the proper accent above a character)
Reference: 20111210/MPCPages.arcLast Updated: 2011-12-12

[ show close-approach data ]
Alternate Designations
 2000 ES79 = 1979 OW 
Ephemeris | Orbit Diagram | Orbital Elements | Physical Parameters | Discovery Circumstances | Close-Approach Data ]
ABOUT SSD CREDITS/AWARDS PRIVACY/COPYRIGHT GLOSSARY LINKS
FirstGov 2015-Sep-03 17:13 UT
(server date/time)  
NASA Home Page
Site Manager:   Ryan S. Park
Webmaster  Alan B. Chamberlin